Location: Altmatt
(47.1333°N, 8.7000°E)
Time: 02:06:01
(UTC+00:00)

Cosmos 332 Rocket - Pass Details

Date: 13 July 2020
Orbit: 682 x 703 km, 74.0° (Epoch: 04 August)

Event Time Altitude Azimuth Distance (km) Brightness Sun altitude
Rises 21:58:28 0° 336° (NNW) 3,056 8.9 -18.1°
Reaches altitude 10° 22:00:47 10° 334° (NNW) 2,137 7.6 -18.3°
Maximum altitude 22:05:34 73° 251° (WSW) 720 3.8 -18.6°
Enters shadow 22:07:24 37° 176° (S) 1,056 4.2 -18.7°
